| time (UTC) | temp C | wind direction | speed KPH | gust KPH | rain 1hr cm | rain 24hr cm | rain mn cm | humidity % | barometer mb |
| 20260507070705 | 13 | 266 | 22.5 | 33.8 | 0.00 | 0.00 | 0.00 | 35 | 1015.6 |
| 20260507070205 | 13 | 269 | 29.0 | 45.1 | 0.00 | 0.00 | 0.00 | 34 | 1015.8 |
| 20260507065705 | 13 | 274 | 30.6 | 45.1 | 0.00 | 0.00 | 0.00 | 34 | 1015.5 |
| 20260507065206 | 13 | 265 | 35.4 | 56.3 | 0.00 | 0.00 | 0.00 | 33 | 1015.7 |
| 20260507064706 | 14 | 271 | 33.8 | 49.9 | 0.00 | 0.00 | 0.00 | 33 | 1015.4 |
| 20260507063705 | 14 | 273 | 35.4 | 45.1 | 0.00 | 0.00 | 0.00 | 33 | 1015.2 |
| 20260507063205 | 14 | 263 | 33.8 | 56.3 | 0.00 | 0.00 | 0.00 | 33 | 1015.4 |
| 20260507062706 | 14 | 249 | 27.4 | 41.8 | 0.00 | 0.00 | 0.00 | 33 | 1015.2 |
| 20260507062205 | 14 | 261 | 33.8 | 48.3 | 0.00 | 0.00 | 0.00 | 33 | 1015.2 |
| 20260507061706 | 15 | 250 | 40.2 | 53.1 | 0.00 | 0.00 | 0.00 | 32 | 1015.2 |
| 20260507061205 | 15 | 260 | 35.4 | 51.5 | 0.00 | 0.00 | 0.00 | 32 | 1015.2 |
| 20260507060706 | 15 | 261 | 33.8 | 62.8 | 0.00 | 0.00 | 0.00 | 32 | 1015.3 |
| 20260507060205 | 15 | 251 | 32.2 | 53.1 | 0.00 | 0.00 | 0.00 | 32 | 1014.9 |
| 20260507054705 | 15 | 255 | 43.5 | 56.3 | 0.00 | 0.00 | 0.00 | 29 | 1014.8 |
| 20260507054206 | 15 | 262 | 33.8 | 51.5 | 0.00 | 0.00 | 0.00 | 30 | 1014.8 |
| 20260507053706 | 15 | 267 | 33.8 | 61.2 | 0.00 | 0.00 | 0.00 | 30 | 1014.7 |
| 20260507053206 | 15 | 243 | 41.8 | 56.3 | 0.00 | 0.00 | 0.00 | 29 | 1014.7 |
| 20260507052706 | 15 | 256 | 48.3 | 61.2 | 0.00 | 0.00 | 0.00 | 29 | 1014.7 |
| 20260507051705 | 15 | 261 | 40.2 | 56.3 | 0.00 | 0.00 | 0.00 | 29 | 1014.5 |
| 20260507051205 | 15 | 256 | 40.2 | 62.8 | 0.00 | 0.00 | 0.00 | 29 | 1014.5 |
| 20260507050705 | 15 | 245 | 35.4 | 59.5 | 0.00 | 0.00 | 0.00 | 28 | 1014.4 |
| 20260507050206 | 15 | 250 | 40.2 | 59.5 | 0.00 | 0.00 | 0.00 | 28 | 1014.4 |
| 20260507045706 | 15 | 247 | 51.5 | 69.2 | 0.00 | 0.00 | 0.00 | 27 | 1014.4 |
| 20260507045206 | 15 | 252 | 41.8 | 57.9 | 0.00 | 0.00 | 0.00 | 28 | 1014.3 |
| 20260507044705 | 15 | 249 | 40.2 | 57.9 | 0.00 | 0.00 | 0.00 | 28 | 1014.3 |
| 20260507044205 | 15 | 249 | 40.2 | 56.3 | 0.00 | 0.00 | 0.00 | 27 | 1014.3 |
| 20260507043706 | 15 | 255 | 45.1 | 61.2 | 0.00 | 0.00 | 0.00 | 27 | 1014.2 |
| 20260507043205 | 15 | 254 | 37.0 | 56.3 | 0.00 | 0.00 | 0.00 | 27 | 1014.3 |
| 20260507042705 | 15 | 243 | 41.8 | 57.9 | 0.00 | 0.00 | 0.00 | 27 | 1014.2 |
| 20260507042206 | 15 | 246 | 48.3 | 64.4 | 0.00 | 0.00 | 0.00 | 27 | 1014.2 |
| 20260507041706 | 15 | 242 | 56.3 | 69.2 | 0.00 | 0.00 | 0.00 | 26 | 1014.2 |
| 20260507041205 | 16 | 242 | 48.3 | 61.2 | 0.00 | 0.00 | 0.00 | 27 | 1014.3 |
| 20260507040705 | 16 | 239 | 45.1 | 57.9 | 0.00 | 0.00 | 0.00 | 27 | 1014.1 |
| 20260507040205 | 16 | 244 | 51.5 | 64.4 | 0.00 | 0.00 | 0.00 | 27 | 1014.0 |
| 20260507035706 | 16 | 242 | 51.5 | 64.4 | 0.00 | 0.00 | 0.00 | 27 | 1013.9 |
| 20260507034705 | 16 | 241 | 51.5 | 70.8 | 0.00 | 0.00 | 0.00 | 27 | 1013.8 |
| 20260507033705 | 16 | 266 | 38.6 | 53.1 | 0.00 | 0.00 | 0.00 | 27 | 1013.5 |
| 20260507033206 | 16 | 262 | 41.8 | 56.3 | 0.00 | 0.00 | 0.00 | 26 | 1013.4 |
| 20260507032705 | 16 | 263 | 43.5 | 56.3 | 0.00 | 0.00 | 0.00 | 25 | 1013.5 |
| 20260507032205 | 16 | 269 | 35.4 | 49.9 | 0.00 | 0.00 | 0.00 | 25 | 1013.5 |
| 20260507031705 | 16 | 265 | 37.0 | 56.3 | 0.00 | 0.00 | 0.00 | 24 | 1013.4 |
| 20260507030705 | 16 | 265 | 29.0 | 56.3 | 0.00 | 0.00 | 0.00 | 25 | 1013.4 |
| 20260507025705 | 16 | 270 | 33.8 | 56.3 | 0.00 | 0.00 | 0.00 | 24 | 1013.6 |
| 20260507025206 | 16 | 255 | 35.4 | 56.3 | 0.00 | 0.00 | 0.00 | 23 | 1013.6 |
| 20260507024705 | 16 | 263 | 49.9 | 66.0 | 0.00 | 0.00 | 0.00 | 22 | 1013.5 |
| 20260507023705 | 16 | 264 | 49.9 | 62.8 | 0.00 | 0.00 | 0.00 | 22 | 1013.8 |
| 20260507023206 | 16 | 269 | 38.6 | 51.5 | 0.00 | 0.00 | 0.00 | 23 | 1013.6 |
| 20260507022205 | 16 | 278 | 33.8 | 48.3 | 0.00 | 0.00 | 0.00 | 24 | 1013.7 |
| 20260507021705 | 16 | 283 | 29.0 | 51.5 | 0.00 | 0.00 | 0.00 | 24 | 1013.8 |
| 20260507020705 | 16 | 271 | 40.2 | 53.1 | 0.00 | 0.00 | 0.00 | 23 | 1013.9 |
| 20260507020206 | 16 | 269 | 33.8 | 49.9 | 0.00 | 0.00 | 0.00 | 24 | 1013.9 |
| 20260507015205 | 16 | 249 | 41.8 | 61.2 | 0.00 | 0.00 | 0.00 | 24 | 1014.1 |
| 20260507014705 | 16 | 247 | 51.5 | 69.2 | 0.00 | 0.00 | 0.00 | 24 | 1013.9 |
| 20260507014205 | 16 | 257 | 35.4 | 49.9 | 0.00 | 0.00 | 0.00 | 27 | 1013.8 |
| 20260507013705 | 16 | 260 | 32.2 | 45.1 | 0.00 | 0.00 | 0.00 | 32 | 1014.0 |
| 20260507012205 | 15 | 264 | 33.8 | 49.9 | 0.00 | 0.00 | 0.00 | 33 | 1013.9 |
| 20260507011705 | 15 | 270 | 41.8 | 59.5 | 0.00 | 0.00 | 0.00 | 33 | 1013.8 |
| 20260507011205 | 15 | 265 | 45.1 | 61.2 | 0.00 | 0.00 | 0.00 | 33 | 1014.0 |
| 20260507010705 | 15 | 258 | 40.2 | 64.4 | 0.00 | 0.00 | 0.00 | 35 | 1014.0 |
| 20260507010204 | 15 | 257 | 54.7 | 69.2 | 0.00 | 0.00 | 0.00 | 37 | 1014.0 |
| 20260507005704 | 15 | 251 | 40.2 | 61.2 | 0.00 | 0.00 | 0.00 | 45 | 1014.2 |
| 20260507005205 | 15 | 252 | 32.2 | 49.9 | 0.00 | 0.00 | 0.00 | 46 | 1014.1 |
| 20260507004705 | 15 | 254 | 35.4 | 56.3 | 0.00 | 0.00 | 0.00 | 46 | 1014.1 |
| 20260507004205 | 15 | 253 | 45.1 | 66.0 | 0.00 | 0.00 | 0.00 | 46 | 1014.0 |
| 20260507003705 | 15 | 257 | 41.8 | 62.8 | 0.00 | 0.00 | 0.00 | 48 | 1014.1 |
| 20260507003205 | 15 | 254 | 56.3 | 75.6 | 0.00 | 0.00 | 0.00 | 48 | 1014.1 |
| 20260507002205 | 16 | 237 | 53.1 | 69.2 | 0.00 | 0.00 | 0.00 | 48 | 1014.0 |
| 20260507001705 | 17 | 235 | 27.4 | 57.9 | 0.00 | 0.00 | 0.00 | 49 | 1013.7 |
| 20260507001205 | 16 | 274 | 27.4 | 41.8 | 0.00 | 0.00 | 0.00 | 48 | 1013.6 |
| 20260507000705 | 17 | 266 | 32.2 | 41.8 | 0.00 | 0.00 | 0.00 | 48 | 1013.5 |
| 20260506235705 | 16 | 317 | 16.1 | 22.5 | 0.00 | 0.00 | 0.00 | 50 | 1013.5 |
| 20260506235205 | 16 | 304 | 16.1 | 24.1 | 0.00 | 0.00 | 0.00 | 49 | 1013.6 |
| 20260506234705 | 17 | 314 | 14.5 | 20.9 | 0.00 | 0.00 | 0.00 | 49 | 1013.7 |
| 20260506234205 | 16 | 325 | 11.3 | 20.9 | 0.00 | 0.00 | 0.00 | 49 | 1013.8 |
| 20260506233705 | 16 | 259 | 11.3 | 24.1 | 0.00 | 0.00 | 0.00 | 51 | 1013.7 |
| 20260506233205 | 16 | 300 | 14.5 | 22.5 | 0.00 | 0.00 | 0.00 | 51 | 1013.7 |
| 20260506232705 | 16 | 317 | 12.9 | 22.5 | 0.00 | 0.00 | 0.00 | 49 | 1013.7 |
| 20260506232205 | 16 | 296 | 16.1 | 20.9 | 0.00 | 0.00 | 0.00 | 48 | 1013.9 |
| 20260506231704 | 16 | 303 | 9.7 | 12.9 | 0.00 | 0.00 | 0.00 | 49 | 1013.9 |
| 20260506231205 | 16 | 332 | 9.7 | 12.9 | 0.00 | 0.00 | 0.00 | 50 | 1013.8 |
| 20260506230705 | 16 | 319 | 11.3 | 14.5 | 0.00 | 0.00 | 0.00 | 49 | 1013.8 |
| 20260506230205 | 16 | 287 | 9.7 | 16.1 | 0.00 | 0.00 | 0.00 | 50 | 1013.9 |
| 20260506224204 | 15 | 325 | 9.7 | 12.9 | 0.00 | 0.00 | 0.00 | 53 | 1013.9 |
| 20260506223704 | 15 | 308 | 11.3 | 12.9 | 0.00 | 0.00 | 0.00 | 52 | 1013.9 |
| 20260506223205 | 15 | 320 | 9.7 | 12.9 | 0.00 | 0.00 | 0.00 | 53 | 1013.8 |
| 20260506222705 | 15 | 325 | 9.7 | 16.1 | 0.00 | 0.00 | 0.00 | 54 | 1013.8 |
| 20260506221705 | 15 | 298 | 9.7 | 12.9 | 0.00 | 0.00 | 0.00 | 55 | 1013.7 |
| 20260506221205 | 15 | 282 | 8.0 | 9.7 | 0.00 | 0.00 | 0.00 | 55 | 1013.9 |
| 20260506220205 | 15 | 291 | 3.2 | 4.8 | 0.00 | 0.00 | 0.00 | 57 | 1013.8 |
| 20260506215705 | 14 | 277 | 4.8 | 8.0 | 0.00 | 0.00 | 0.00 | 57 | 1013.8 |
| 20260506214705 | 14 | 302 | 8.0 | 12.9 | 0.00 | 0.00 | 0.00 | 56 | 1013.5 |
| 20260506213705 | 14 | 319 | 4.8 | 9.7 | 0.00 | 0.00 | 0.00 | 57 | 1013.4 |
| 20260506213205 | 14 | 314 | 4.8 | 9.7 | 0.00 | 0.00 | 0.00 | 57 | 1013.6 |
| 20260506212705 | 13 | 311 | 4.8 | 8.0 | 0.00 | 0.00 | 0.00 | 57 | 1013.6 |
| 20260506212204 | 13 | 309 | 6.4 | 12.9 | 0.00 | 0.00 | 0.00 | 57 | 1013.6 |
| 20260506211705 | 13 | 306 | 9.7 | 12.9 | 0.00 | 0.00 | 0.00 | 57 | 1013.5 |
| 20260506210704 | 13 | 301 | 12.9 | 16.1 | 0.00 | 0.00 | 0.00 | 57 | 1013.4 |
| 20260506210205 | 13 | 310 | 14.5 | 19.3 | 0.00 | 0.00 | 0.00 | 57 | 1013.4 |
| 20260506205705 | 12 | 318 | 11.3 | 14.5 | 0.00 | 0.00 | 0.00 | 58 | 1013.2 |
| 20260506204704 | 13 | 297 | 9.7 | 12.9 | 0.00 | 0.00 | 0.00 | 58 | 1013.3 |
| 20260506204205 | 13 | 293 | 9.7 | 11.3 | 0.00 | 0.00 | 0.00 | 58 | 1013.2 |
| 20260506203704 | 13 | 296 | 8.0 | 9.7 | 0.00 | 0.00 | 0.00 | 58 | 1013.4 |
| 20260506203205 | 13 | 289 | 9.7 | 14.5 | 0.00 | 0.00 | 0.00 | 57 | 1013.3 |
| 20260506202704 | 13 | 298 | 9.7 | 11.3 | 0.00 | 0.00 | 0.00 | 57 | 1013.4 |
| 20260506202205 | 13 | 301 | 9.7 | 14.5 | 0.00 | 0.00 | 0.00 | 57 | 1013.4 |
| 20260506201704 | 13 | 273 | 16.1 | 20.9 | 0.00 | 0.00 | 0.00 | 57 | 1013.3 |
| 20260506201204 | 13 | 275 | 8.0 | 16.1 | 0.00 | 0.00 | 0.00 | 58 | 1013.0 |
| 20260506200704 | 13 | 277 | 4.8 | 11.3 | 0.00 | 0.00 | 0.00 | 58 | 1013.0 |
| 20260506200204 | 13 | 279 | 4.8 | 9.7 | 0.00 | 0.00 | 0.00 | 59 | 1013.1 |
| 20260506195705 | 13 | 279 | 12.9 | 16.1 | 0.00 | 0.00 | 0.00 | 59 | 1012.9 |
| 20260506195205 | 13 | 282 | 9.7 | 12.9 | 0.00 | 0.00 | 0.00 | 61 | 1013.2 |
| 20260506194704 | 12 | 280 | 6.4 | 9.7 | 0.00 | 0.00 | 0.00 | 63 | 1013.0 |
| 20260506194204 | 13 | 286 | 8.0 | 14.5 | 0.00 | 0.00 | 0.00 | 64 | 1013.2 |
| 20260506193704 | 13 | 262 | 4.8 | 8.0 | 0.00 | 0.00 | 0.00 | 65 | 1013.4 |
| 20260506192705 | 13 | 252 | 6.4 | 12.9 | 0.00 | 0.00 | 0.00 | 64 | 1013.3 |
| 20260506192204 | 13 | 249 | 9.7 | 14.5 | 0.00 | 0.00 | 0.00 | 64 | 1013.3 |
| 20260506191704 | 13 | 242 | 11.3 | 12.9 | 0.00 | 0.00 | 0.00 | 63 | 1013.3 |
| 20260506191204 | 13 | 231 | 9.7 | 11.3 | 0.00 | 0.00 | 0.00 | 63 | 1013.3 |
| 20260506190704 | 13 | 219 | 8.0 | 14.5 | 0.00 | 0.00 | 0.00 | 63 | 1013.4 |
| 20260506190204 | 13 | 235 | 11.3 | 19.3 | 0.00 | 0.00 | 0.00 | 61 | 1013.3 |
| 20260506185704 | 13 | 233 | 17.7 | 20.9 | 0.00 | 0.00 | 0.00 | 61 | 1013.3 |
| 20260506185204 | 13 | 215 | 19.3 | 22.5 | 0.00 | 0.00 | 0.00 | 63 | 1013.2 |
| 20260506183704 | 13 | 215 | 19.3 | 25.7 | 0.00 | 0.00 | 0.00 | 63 | 1013.0 |
| 20260506183204 | 13 | 206 | 12.9 | 19.3 | 0.00 | 0.00 | 0.00 | 64 | 1013.2 |
| 20260506182705 | 13 | 210 | 8.0 | 14.5 | 0.00 | 0.00 | 0.00 | 64 | 1013.2 |
| 20260506182204 | 13 | 214 | 3.2 | 11.3 | 0.00 | 0.00 | 0.00 | 64 | 1012.9 |
| 20260506181704 | 13 | 224 | 4.8 | 9.7 | 0.00 | 0.00 | 0.00 | 64 | 1012.9 |
| 20260506175204 | 14 | 251 | 12.9 | 16.1 | 0.00 | 0.00 | 0.00 | 64 | 1013.0 |
| 20260506174704 | 14 | 241 | 8.0 | 16.1 | 0.00 | 0.00 | 0.00 | 64 | 1013.0 |
| 20260506174204 | 14 | 241 | 6.4 | 9.7 | 0.00 | 0.00 | 0.00 | 64 | 1012.8 |
| 20260506173704 | 14 | 252 | 8.0 | 14.5 | 0.00 | 0.00 | 0.00 | 63 | 1012.8 |
| 20260506173204 | 14 | 268 | 9.7 | 16.1 | 0.00 | 0.00 | 0.00 | 63 | 1012.9 |
| 20260506172704 | 14 | 243 | 8.0 | 12.9 | 0.00 | 0.00 | 0.00 | 64 | 1012.9 |
| 20260506172204 | 14 | 218 | 11.3 | 24.1 | 0.00 | 0.00 | 0.00 | 63 | 1013.3 |
| 20260506171704 | 14 | 251 | 16.1 | 24.1 | 0.00 | 0.00 | 0.00 | 64 | 1013.1 |
| 20260506171204 | 14 | 215 | 14.5 | 24.1 | 0.00 | 0.00 | 0.00 | 64 | 1013.0 |
| 20260506170204 | 14 | 254 | 20.9 | 24.1 | 0.00 | 0.00 | 0.00 | 65 | 1013.2 |
| 20260506165707 | 14 | 262 | 19.3 | 25.7 | 0.00 | 0.00 | 0.00 | 66 | 1013.1 |
| 20260506165207 | 14 | 250 | 16.1 | 22.5 | 0.00 | 0.00 | 0.00 | 66 | 1013.2 |
| 20260506164707 | 14 | 262 | 16.1 | 22.5 | 0.00 | 0.00 | 0.00 | 66 | 1013.2 |
| 20260506163707 | 14 | 257 | 12.9 | 20.9 | 0.00 | 0.00 | 0.00 | 66 | 1013.2 |
| 20260506163207 | 14 | 267 | 17.7 | 27.4 | 0.00 | 0.00 | 0.00 | 65 | 1013.4 |
| 20260506162207 | 14 | 266 | 14.5 | 24.1 | 0.00 | 0.00 | 0.00 | 66 | 1013.3 |
| 20260506161707 | 14 | 267 | 19.3 | 29.0 | 0.00 | 0.00 | 0.00 | 66 | 1013.3 |
| 20260506161206 | 14 | 263 | 20.9 | 32.2 | 0.00 | 0.00 | 0.00 | 67 | 1013.6 |
| 20260506160707 | 14 | 258 | 20.9 | 32.2 | 0.00 | 0.00 | 0.00 | 68 | 1013.6 |
| 20260506155207 | 14 | 263 | 22.5 | 32.2 | 0.00 | 0.00 | 0.00 | 70 | 1013.6 |
| 20260506154206 | 14 | 250 | 20.9 | 27.4 | 0.00 | 0.00 | 0.00 | 72 | 1013.6 |
| 20260506153706 | 14 | 257 | 20.9 | 29.0 | 0.00 | 0.00 | 0.00 | 73 | 1013.7 |
| 20260506153206 | 15 | 256 | 12.9 | 19.3 | 0.00 | 0.00 | 0.00 | 74 | 1013.6 |
| 20260506152706 | 15 | 254 | 12.9 | 19.3 | 0.00 | 0.00 | 0.00 | 75 | 1013.7 |
| 20260506152206 | 15 | 251 | 16.1 | 20.9 | 0.00 | 0.00 | 0.00 | 75 | 1013.7 |
| 20260506151206 | 15 | 263 | 11.3 | 19.3 | 0.00 | 0.00 | 0.00 | 77 | 1013.7 |
| 20260506150706 | 15 | 262 | 9.7 | 16.1 | 0.00 | 0.00 | 0.00 | 78 | 1013.8 |
| 20260506150206 | 15 | 257 | 9.7 | 12.9 | 0.00 | 0.00 | 0.00 | 78 | 1013.9 |
| 20260506145706 | 15 | 269 | 9.7 | 14.5 | 0.00 | 0.00 | 0.00 | 79 | 1014.1 |
| 20260506145206 | 15 | 277 | 11.3 | 14.5 | 0.00 | 0.00 | 0.00 | 80 | 1014.1 |
| 20260506144707 | 15 | 278 | 12.9 | 14.5 | 0.00 | 0.00 | 0.00 | 81 | 1014.0 |
| 20260506144207 | 15 | 289 | 12.9 | 16.1 | 0.00 | 0.00 | 0.00 | 81 | 1014.1 |
| 20260506143706 | 15 | 291 | 14.5 | 16.1 | 0.00 | 0.00 | 0.00 | 82 | 1014.0 |
| 20260506143206 | 15 | 289 | 14.5 | 19.3 | 0.00 | 0.00 | 0.00 | 83 | 1014.0 |
| 20260506142706 | 15 | 287 | 14.5 | 19.3 | 0.00 | 0.00 | 0.00 | 83 | 1014.2 |
| 20260506142206 | 15 | 287 | 14.5 | 19.3 | 0.00 | 0.00 | 0.00 | 83 | 1014.3 |
| 20260506140706 | 16 | 282 | 14.5 | 16.1 | 0.00 | 0.00 | 0.00 | 83 | 1014.4 |
| 20260506140206 | 16 | 277 | 11.3 | 14.5 | 0.00 | 0.00 | 0.00 | 83 | 1014.5 |
| 20260506135706 | 16 | 276 | 12.9 | 16.1 | 0.00 | 0.00 | 0.00 | 83 | 1014.4 |
| 20260506135206 | 16 | 288 | 12.9 | 14.5 | 0.00 | 0.00 | 0.00 | 82 | 1014.3 |
| 20260506134706 | 16 | 288 | 11.3 | 16.1 | 0.00 | 0.00 | 0.00 | 82 | 1014.3 |
| 20260506134207 | 16 | 278 | 11.3 | 16.1 | 0.00 | 0.00 | 0.00 | 82 | 1014.4 |
| 20260506133707 | 16 | 290 | 11.3 | 19.3 | 0.00 | 0.00 | 0.00 | 82 | 1014.2 |
| 20260506133206 | 16 | 298 | 14.5 | 19.3 | 0.00 | 0.00 | 0.00 | 82 | 1014.3 |
| 20260506132706 | 16 | 300 | 14.5 | 19.3 | 0.00 | 0.00 | 0.00 | 82 | 1014.3 |
| 20260506131706 | 16 | 293 | 11.3 | 16.1 | 0.00 | 0.00 | 0.00 | 82 | 1014.3 |
| 20260506130707 | 16 | 294 | 11.3 | 16.1 | 0.00 | 0.00 | 0.00 | 82 | 1014.4 |
| 20260506130206 | 16 | 296 | 14.5 | 16.1 | 0.00 | 0.00 | 0.00 | 82 | 1014.5 |
| 20260506125206 | 16 | 293 | 14.5 | 19.3 | 0.00 | 0.00 | 0.00 | 82 | 1014.6 |
| 20260506124706 | 16 | 291 | 14.5 | 19.3 | 0.00 | 0.00 | 0.00 | 82 | 1014.7 |
| 20260506124206 | 16 | 287 | 14.5 | 19.3 | 0.00 | 0.00 | 0.00 | 82 | 1014.8 |
| 20260506123706 | 16 | 287 | 16.1 | 19.3 | 0.00 | 0.00 | 0.00 | 82 | 1014.9 |
| 20260506123206 | 16 | 294 | 14.5 | 19.3 | 0.00 | 0.00 | 0.00 | 82 | 1015.1 |
| 20260506122706 | 16 | 295 | 16.1 | 19.3 | 0.00 | 0.00 | 0.00 | 81 | 1015.1 |
| 20260506122205 | 16 | 298 | 14.5 | 19.3 | 0.00 | 0.00 | 0.00 | 81 | 1015.1 |
| 20260506121706 | 16 | 292 | 14.5 | 19.3 | 0.00 | 0.00 | 0.00 | 81 | 1015.2 |
| 20260506121206 | 16 | 296 | 14.5 | 19.3 | 0.00 | 0.00 | 0.00 | 81 | 1015.3 |
| 20260506120707 | 17 | 295 | 14.5 | 19.3 | 0.00 | 0.00 | 0.00 | 81 | 1015.3 |
| 20260506120206 | 17 | 298 | 14.5 | 19.3 | 0.00 | 0.00 | 0.00 | 81 | 1015.4 |
| 20260506115706 | 17 | 296 | 16.1 | 19.3 | 0.00 | 0.00 | 0.00 | 81 | 1015.4 |
| 20260506115206 | 17 | 299 | 16.1 | 19.3 | 0.00 | 0.00 | 0.00 | 81 | 1015.7 |
| 20260506114706 | 17 | 301 | 14.5 | 19.3 | 0.00 | 0.00 | 0.00 | 81 | 1015.5 |
| 20260506114206 | 17 | 292 | 12.9 | 16.1 | 0.00 | 0.00 | 0.00 | 80 | 1015.6 |
| 20260506113206 | 17 | 289 | 9.7 | 12.9 | 0.00 | 0.00 | 0.00 | 79 | 1015.5 |
| 20260506112706 | 17 | 298 | 9.7 | 11.3 | 0.00 | 0.00 | 0.00 | 79 | 1015.5 |
| 20260506112206 | 17 | 303 | 11.3 | 12.9 | 0.00 | 0.00 | 0.00 | 79 | 1015.6 |
| 20260506111706 | 17 | 305 | 11.3 | 12.9 | 0.00 | 0.00 | 0.00 | 79 | 1015.7 |
| 20260506111206 | 17 | 304 | 11.3 | 12.9 | 0.00 | 0.00 | 0.00 | 79 | 1015.8 |
| 20260506110706 | 17 | 308 | 11.3 | 12.9 | 0.00 | 0.00 | 0.00 | 79 | 1015.7 |
| 20260506110206 | 17 | 302 | 9.7 | 9.7 | 0.00 | 0.00 | 0.00 | 78 | 1015.9 |
| 20260506105705 | 17 | 302 | 9.7 | 9.7 | 0.00 | 0.00 | 0.00 | 78 | 1015.7 |
| 20260506104706 | 17 | 319 | 9.7 | 9.7 | 0.00 | 0.00 | 0.00 | 79 | 1015.7 |
| 20260506104206 | 18 | 331 | 8.0 | 9.7 | 0.00 | 0.00 | 0.00 | 79 | 1015.7 |
| 20260506103706 | 18 | 331 | 8.0 | 9.7 | 0.00 | 0.00 | 0.00 | 79 | 1015.7 |
| 20260506103206 | 18 | 321 | 8.0 | 9.7 | 0.00 | 0.00 | 0.00 | 79 | 1015.7 |
| 20260506102706 | 17 | 321 | 8.0 | 11.3 | 0.00 | 0.00 | 0.00 | 79 | 1015.7 |
| 20260506101705 | 17 | 317 | 8.0 | 8.0 | 0.00 | 0.00 | 0.00 | 78 | 1015.9 |
| 20260506101206 | 18 | 359 | 4.8 | 4.8 | 0.00 | 0.00 | 0.00 | 77 | 1015.8 |
| 20260506100206 | 18 | 359 | 4.8 | 4.8 | 0.00 | 0.00 | 0.00 | 76 | 1015.9 |
| 20260506095706 | 18 | 359 | 8.0 | 8.0 | 0.00 | 0.00 | 0.00 | 76 | 1015.8 |
| 20260506095206 | 18 | 359 | 4.8 | 4.8 | 0.00 | 0.00 | 0.00 | 76 | 1015.9 |
| 20260506094706 | 18 | 359 | 4.8 | 4.8 | 0.00 | 0.00 | 0.00 | 76 | 1015.9 |
| 20260506094206 | 18 | 359 | 3.2 | 9.7 | 0.00 | 0.00 | 0.00 | 76 | 1015.8 |
| 20260506093706 | 18 | 2 | 6.4 | 9.7 | 0.00 | 0.00 | 0.00 | 76 | 1015.8 |
| 20260506093206 | 18 | 2 | 4.8 | 8.0 | 0.00 | 0.00 | 0.00 | 76 | 1016.0 |
| 20260506092706 | 18 | 0 | 6.4 | 9.7 | 0.00 | 0.00 | 0.00 | 76 | 1015.9 |
| 20260506092206 | 18 | 4 | 6.4 | 8.0 | 0.00 | 0.00 | 0.00 | 76 | 1015.8 |
| 20260506091706 | 18 | 5 | 8.0 | 9.7 | 0.00 | 0.00 | 0.00 | 76 | 1015.9 |
| 20260506091205 | 18 | 3 | 8.0 | 9.7 | 0.00 | 0.00 | 0.00 | 76 | 1015.8 |
| 20260506090706 | 18 | 5 | 4.8 | 9.7 | 0.00 | 0.00 | 0.00 | 76 | 1016.0 |
| 20260506085205 | 18 | 31 | 8.0 | 9.7 | 0.00 | 0.00 | 0.00 | 76 | 1016.2 |
| 20260506084206 | 18 | 32 | 8.0 | 9.7 | 0.00 | 0.00 | 0.00 | 77 | 1016.1 |
| 20260506083706 | 18 | 30 | 8.0 | 9.7 | 0.00 | 0.00 | 0.00 | 77 | 1016.2 |
| 20260506083205 | 18 | 26 | 6.4 | 9.7 | 0.00 | 0.00 | 0.00 | 76 | 1016.3 |
| 20260506082706 | 18 | 37 | 4.8 | 8.0 | 0.00 | 0.00 | 0.00 | 76 | 1016.0 |
| 20260506082206 | 18 | 39 | 4.8 | 8.0 | 0.00 | 0.00 | 0.00 | 75 | 1016.1 |
| 20260506081206 | 18 | 51 | 6.4 | 9.7 | 0.00 | 0.00 | 0.00 | 75 | 1016.3 |
| 20260506080706 | 18 | 42 | 8.0 | 8.0 | 0.00 | 0.00 | 0.00 | 75 | 1016.0 |
| 20260506080206 | 18 | 44 | 8.0 | 9.7 | 0.00 | 0.00 | 0.00 | 75 | 1015.9 |
| 20260506073205 | 18 | 57 | 12.9 | 16.1 | 0.00 | 0.00 | 0.00 | 73 | 1015.9 |
| 20260506072706 | 18 | 65 | 12.9 | 14.5 | 0.00 | 0.00 | 0.00 | 72 | 1015.8 |
| 20260506072206 | 18 | 61 | 12.9 | 16.1 | 0.00 | 0.00 | 0.00 | 72 | 1016.0 |
| 20260506071706 | 18 | 53 | 12.9 | 14.5 | 0.00 | 0.00 | 0.00 | 71 | 1015.8 |
| 20260506071206 | 19 | 59 | 12.9 | 19.3 | 0.00 | 0.00 | 0.00 | 71 | 1016.0 |